SCP
1 1 2 1 2 1 1 1 1 1 1 2 2 2 0 0 0 0 0 0 0 0 0 0 0 0 0 0 0 0 0 0 0 0 0 0 0 0 0 0 0 0 0
1 1 1 2 3 2 2 1 1 2 2 2 2 1 0 0 0 0 0 0 0 0 0 0 0 0 0 0 0 0 0 0 0 0 0 0 0 0 0 0 0 0 0
-0 0 1 1 2 2 1 1 1 1 2 1 1 1 0 0 0 0 0 0 0 0 0 0 0 0 0 0 0 0 0 0 0 0 0 0 0 0 0 0 0 0 0
1 0 1 1 1 1 0 0 1 1 1 1 1 1 1 0 0 0 0 0 0 0 0 0 0 0 0 0 0 0 0 0 0 0 0 0 0 0 0 0 0 0 0
1 1 1 1 1 0 0 0 0 0 0 1 1 1 0 0 0 0 0 0 0 0 0 0 0 0 0 0 0 0 0 0 0 0 0 0 0 0 0 0 0 0 0
1 1 1 1 1 0 0 0 0 0 0 0 0 0 0 0 0 0 0 0 0 0 0 0 0 0 0 0 0 0 0 0 0 0 0 0 0 0 0 0 0 0 0
2 2 1 1 0 0 0 0 0 0 0 0 0 0 0 0 0 0 0 0 0 0 0 0 0 0 0 0 0 0 0 0 0 0 0 0 0 0 0 0 0 0 0
2 2 1 0 0 0 0 0 0 0 0 0 0 0 0 0 0 0 0 0 0 0 0 0 0 0 0 0 0 0 0 0 0 0 0 0 0 0 0 0 0 0 0
2 1 0 0 0 0 0 0 0 0 0 0 0 0 0 0 0 0 0 0 0 0 0 0 0 0 0 0 0 0 0 0 0 0 0 0 0 0 0 0 0 0 0
2 1 0 0 0 0 0 0 0 0 0 0 0 0 0 0 0 0 0 0 0 0 0 0 0 0 0 0 0 0 0 0 0 0 0 0 0 0 0 0 0 0 0
1 0 0 0 0 0 0 0 0 0 0 0 0 0 0 0 0 0 0 0 0 0 0 0 0 0 0 0 0 0 0 0 0 0 0 0 0 0 0 0 0 0 0
0 0 0 0 0 0 0 0 0 0 0 0 0 0 0 0 0 0 0 0 0 0 0 0 0 0 0 0 0 0 0 0 0 0 0 0 0 0 0 0 0 0 0
0 0 0 0 0 0 0 0 0 0 0 0 0 0 0 0 0 0 0 0 0 0 0 0 0 0 0 0 0 0 0 0 0 0 0 0 0 0 0 0 0 0 0
0 0 0 0 0 0 0 0 0 0 0 0 0 0 0 0 0 0 0 0 0 0 0 0 0 0 0 0 0 0 0 0 0 0 0 0 0 0 0 0 0 0 0
0 0 0 0 0 0 0 0 0 0 0 0 0 0 0 0 0 0 0 0 0 0 0 0 0 0 0 0 0 0 0 0 0 0 0 0 0 0 0 0 0 0 0
0 0 0 0 0 0 0 0 0 0 0 0 0 0 0 0 0 0 0 0 0 0 0 0 0 0 0 0 0 0 0 0 0 0 0 0 0 0 0 0 0 0 0
0 0 0 0 0 0 0 0 0 0 0 0 0 0 0 0 0 0 0 0 0 0 0 0 0 0 0 0 0 0 0 0 0 0 0 0 0 0 0 0 0 0 0
0 0 0 0 0 0 0 0 0 0 0 0 0 0 0 0 0 0 0 0 0 0 0 0 0 0 0 0 0 0 0 0 0 0 0 0 0 0 0 0 0 0 0
0 0 0 0 0 0 0 0 0 0 0 0 0 0 0 0 0 0 0 0 0 0 0 0 0 0 0 0 0 0 0 0 0 0 0 0 0 0 0 0 0 0 0
0 0 0 0 0 0 0 0 0 0 0 0 0 0 0 0 0 0 0 0 0 0 0 0 0 0 0 0 0 0 0 0 0 0 0 0 0 0 0 0 0 0 0
0 0 0 0 0 0 0 0 0 0 0 0 0 0 0 0 0 0 0 0 0 0 0 0 0 0 0 0 0 0 0 0 0 0 0 0 0 0 0 0 0 0 0
0 0 0 0 0 0 0 0 0 0 0 0 0 0 0 0 0 0 0 0 0 0 0 0 0 0 0 0 0 0 0 0 0 0 0 0 0 0 0 0 0 0 0
0 0 0 0 0 0 0 0 0 0 0 0 -0 0 0 0 0 0 0 0 0 0 0 0 0 0 0 0 0 0 0 0 0 0 0 0 0 0 0 0 0 0 0
0 0 0 0 0 0 0 0 -0 -0 0 0 0 0 0 0 0 0 0 0 0 0 0 0 0 0 0 0 0 0 0 0 0 0 0 0 0 0 0 0 0 0 0
0 0 0 0 0 0 0 0 0 0 0 0 0 0 0 0 0 0 0 0 0 0 0 0 0 0 0 0 0 0 0 0 0 0 0 0 0 0 0 0 0 0 0
0 0 0 -0 0 0 0 0 0 0 0 0 0 0 0 0 0 0 0 0 0 0 0 0 0 0 0 0 0 0 0 0 0 0 0 0 0 0 0 0 0 0 0
Wind_Speed_500mb
61 55 58 64 69 77 70 61 58 55 59 52 45 40 37 38 44 46 42 36 36 38 43 35 38 36 41 45 47 33 36 34 42 45 43 43 37 33 33 31 40 46 47
69 66 65 63 64 66 62 62 63 61 61 53 48 49 41 37 39 40 41 36 35 34 31 29 32 31 23 34 45 35 40 34 34 34 40 26 43 8 37 42 45 33 44
86 77 71 68 65 63 60 58 53 51 58 58 57 50 44 40 32 33 26 25 24 22 16 22 20 33 34 30 28 32 33 31 29 28 17 14 14 50 37 39 42 39 35
83 84 78 70 65 62 55 44 42 44 44 42 40 40 42 37 25 20 15 13 13 18 21 21 25 18 14 17 22 23 23 23 23 19 16 16 25 26 31 44 40 42 40
81 88 83 73 67 62 55 48 43 41 40 40 31 31 31 33 29 21 16 9 9 3 5 6 10 11 14 18 19 19 19 19 16 16 16 16 18 22 36 39 58 49 41
77 76 70 67 65 62 56 49 44 40 38 37 37 33 35 31 28 23 15 15 18 19 18 16 15 16 17 20 21 21 19 18 17 14 14 19 21 24 31 41 49 56 51
80 73 72 71 66 60 55 48 42 38 33 31 30 30 29 27 24 22 19 18 19 19 18 16 15 17 22 25 26 25 24 24 24 22 18 15 18 22 24 29 40 49 53
85 84 81 71 65 62 56 50 45 43 37 33 31 27 27 26 26 22 19 20 18 18 16 15 19 23 27 29 29 27 28 28 26 24 22 19 20 24 25 27 36 44 50
95 96 85 73 67 63 58 55 52 44 40 34 31 28 27 26 26 25 24 21 17 11 8 8 15 21 29 32 29 27 26 28 28 27 27 28 26 23 23 22 23 28 34
68 84 84 74 65 59 56 53 48 43 39 36 32 34 33 29 29 28 23 20 13 5 3 10 17 24 30 29 29 31 29 28 27 29 31 31 31 29 29 30 25 22 27
90 94 85 73 66 61 57 53 48 46 39 43 40 38 34 34 33 26 24 19 12 9 10 13 19 28 31 29 30 31 32 31 31 32 33 34 36 36 35 35 34 30 30
55 71 71 64 61 60 56 50 46 45 50 46 45 40 34 34 31 28 23 17 11 12 16 18 23 30 35 34 33 34 34 33 33 36 40 42 47 46 43 40 40 42 32
62 62 69 65 61 63 57 48 45 49 49 47 45 41 38 33 28 24 18 14 12 16 20 23 25 30 38 37 37 36 34 34 39 46 47 51 54 47 40 36 35 38 42
74 87 79 78 73 63 68 61 53 53 49 49 46 41 37 30 23 17 16 12 14 18 22 27 30 35 40 39 38 39 37 37 39 46 49 48 45 35 30 28 29 30 37
85 79 81 94 92 94 94 66 74 69 56 53 49 45 39 27 24 22 19 18 18 20 25 31 36 41 44 45 46 45 41 38 38 42 49 46 33 23 21 27 26 25 29
75 79 88 98 99 103 96 74 74 74 60 57 54 43 40 38 35 26 20 22 25 29 33 36 43 46 51 52 51 47 44 42 44 44 40 33 26 19 19 18 21 27 29
72 80 90 95 97 100 91 84 77 71 67 66 65 54 49 46 39 34 30 26 29 34 38 43 49 53 56 58 51 47 47 44 40 37 28 26 23 16 20 22 19 18 20
66 78 92 75 69 72 77 78 71 72 76 69 70 57 54 47 40 30 25 28 37 42 46 51 54 58 56 54 51 49 40 28 23 25 27 24 27 22 25 23 21 18 25
45 58 56 56 57 58 69 67 64 66 65 62 65 67 61 41 20 22 31 34 39 46 51 52 53 50 46 40 36 35 29 27 25 25 24 27 27 33 30 27 28 24 28
17 32 49 57 58 57 63 63 65 63 64 65 52 23 7 11 27 31 25 35 40 41 41 43 40 35 30 25 30 27 28 28 32 31 27 32 35 35 32 33 34 37 38
68 68 66 66 61 59 64 65 60 53 37 35 14 2 7 17 22 29 27 31 32 34 39 37 36 37 30 28 28 31 34 36 37 35 35 33 35 36 37 36 37 43 47
86 87 91 86 73 64 54 51 42 31 17 12 2 3 4 11 15 22 24 30 37 37 35 36 34 35 36 36 37 36 38 41 42 43 43 40 40 42 44 44 42 43 48
76 68 76 72 66 64 56 51 42 28 23 13 7 9 3 5 14 19 24 25 26 30 35 35 38 43 43 49 46 46 44 44 47 49 51 55 58 55 56 57 55 55 62
64 63 56 65 63 48 39 41 21 35 15 14 9 12 8 11 11 16 26 32 33 32 32 38 47 51 53 49 44 45 44 44 48 53 57 56 57 56 57 53 49 46 43
57 59 55 68 56 44 40 26 18 13 8 15 15 19 17 18 19 18 18 18 16 23 31 37 41 45 51 50 50 53 56 56 54 57 61 64 65 67 62 55 50 45 42
53 53 51 49 43 31 30 24 26 22 20 23 24 21 21 23 22 23 26 24 28 26 23 27 35 42 48 55 60 64 68 70 68 66 64 63 59 55 54 53 49 42 40
Wind_Direction_500mb
183 181 185 193 200 206 208 207 212 215 218 214 211 215 234 241 242 246 250 257 263 265 264 258 267 267 274 278 292 269 278 290 296 307 305 310 314 318 315 319 315 308 307
170 173 177 185 192 197 202 205 210 217 215 219 217 225 235 239 240 248 248 249 254 262 260 259 267 273 289 291 296 313 313 315 323 329 331 327 320 293 308 313 318 319 323
178 178 182 184 186 189 191 197 198 202 209 215 223 232 234 242 245 252 265 274 258 242 245 262 280 285 302 302 311 320 322 330 337 340 349 329 308 320 324 327 333 330 327
186 184 185 184 187 191 196 199 202 204 211 216 218 234 244 247 224 228 217 213 230 260 267 276 290 304 335 349 351 349 348 345 348 4 2 348 326 322 324 328 337 336 337
196 191 191 191 190 196 198 202 205 208 216 219 223 234 227 230 222 202 199 207 253 230 112 82 72 50 30 19 12 6 4 357 358 358 354 345 344 350 335 329 335 326 336
206 201 198 197 197 195 197 199 204 205 204 209 223 225 227 213 198 184 173 136 118 113 102 87 67 48 31 19 8 1 346 344 343 347 349 356 6 342 340 333 332 329 331
211 201 197 194 190 186 186 188 193 191 194 194 191 196 198 189 177 159 139 126 125 118 102 84 61 34 19 7 0 352 342 338 332 333 336 330 333 343 334 334 328 328 332
210 202 199 189 184 181 180 179 178 178 178 179 176 171 169 166 155 147 138 136 133 120 92 52 28 10 359 352 348 343 339 338 331 327 321 323 311 314 332 344 341 333 326
199 198 193 186 180 176 173 173 170 168 168 172 168 166 165 164 158 155 148 143 134 117 83 20 3 358 349 345 342 338 335 331 328 322 317 313 303 301 310 314 331 342 329
183 187 188 184 179 171 167 168 169 170 168 176 171 164 164 166 163 159 158 153 156 188 320 339 347 350 349 344 337 332 334 331 325 319 313 307 305 300 294 295 298 311 321
184 187 184 181 174 173 173 174 173 172 178 175 169 169 172 173 170 172 172 172 196 251 296 315 334 340 344 338 331 328 327 324 320 315 311 312 311 305 300 288 287 287 295
164 173 177 176 178 178 177 180 186 185 182 182 176 178 180 187 181 182 188 199 218 267 291 311 325 334 336 335 329 326 324 322 318 314 312 311 308 305 302 292 281 279 285
162 168 174 181 190 189 184 189 198 198 185 182 180 180 183 192 201 199 208 219 253 284 294 307 319 330 330 330 328 326 320 315 311 310 312 315 314 307 302 294 286 272 274
178 180 182 184 196 202 195 191 202 200 191 187 182 185 190 195 200 207 214 236 276 289 295 306 314 319 322 323 324 322 316 308 305 306 311 319 321 311 307 304 299 287 274
181 193 195 193 194 206 206 201 203 201 197 195 194 194 193 196 215 222 231 254 276 292 302 306 311 315 317 318 321 320 316 309 305 306 310 315 313 304 306 307 302 295 290
206 210 204 200 205 203 206 203 203 204 200 202 202 200 208 204 206 211 231 253 270 286 296 302 308 311 312 313 315 316 312 306 305 308 312 309 307 299 286 284 294 299 298
197 202 205 209 210 207 212 205 208 208 205 207 207 206 203 198 202 214 232 260 280 291 293 297 302 304 305 308 310 309 307 305 305 307 307 306 310 302 301 290 273 286 294
212 211 209 205 203 207 206 206 208 207 204 202 206 192 187 190 197 213 242 263 282 287 293 296 299 302 304 304 308 307 308 307 311 312 306 308 306 305 302 307 303 288 278
237 229 210 200 199 205 202 201 198 196 191 187 185 178 180 177 200 247 252 262 274 286 292 296 299 301 301 302 311 317 317 316 311 301 296 296 301 299 292 282 286 284 275
167 182 187 183 186 179 190 188 177 175 163 156 141 129 224 231 256 264 273 287 287 293 299 306 308 307 302 304 311 317 306 302 298 295 292 295 298 300 302 287 277 280 278
103 116 124 123 123 138 155 141 132 125 119 116 72 342 300 244 259 279 289 294 294 301 307 309 314 320 311 300 295 302 298 295 294 291 295 297 295 296 296 296 295 284 285
95 102 105 98 97 97 100 106 100 98 104 85 92 149 40 294 275 282 295 298 300 304 307 318 316 315 311 308 301 295 289 292 286 288 292 289 289 291 292 292 294 296 294
86 82 85 84 77 73 71 52 76 80 53 44 78 43 31 297 302 308 308 303 307 310 316 313 316 310 305 303 303 298 291 287 287 285 285 287 288 290 286 280 281 286 287
82 86 85 87 78 73 63 60 43 59 78 101 51 71 358 354 322 310 310 310 304 291 300 315 309 305 304 307 309 306 302 296 292 288 286 284 287 293 296 292 290 290 288
76 76 80 77 75 73 79 72 62 53 51 62 39 35 7 343 346 342 328 307 307 331 328 312 306 305 304 305 299 294 293 292 288 286 284 286 289 293 293 292 292 290 285
86 80 76 82 80 75 71 55 42 32 30 33 30 20 19 20 12 0 350 358 1 347 312 290 285 288 284 286 286 286 287 286 286 284 284 285 288 291 293 291 292 288 284
Wind_Speed_850mb
61 55 58 64 69 77 70 61 58 55 59 52 45 40 37 38 44 46 42 36 36 38 43 35 38 36 41 45 47 33 36 34 42 45 43 43 37 33 33 31 40 46 47
69 66 65 63 64 66 62 62 63 61 61 53 48 49 41 37 39 40 41 36 35 34 31 29 32 31 23 34 45 35 40 34 34 34 40 26 43 8 37 42 45 33 44
86 77 71 68 65 63 60 58 53 51 58 58 57 50 44 40 32 33 26 25 24 22 16 22 20 33 34 30 28 32 33 31 29 28 17 14 14 50 37 39 42 39 35
83 84 78 70 65 62 55 44 42 44 44 42 40 40 42 37 25 20 15 13 13 18 21 21 25 18 14 17 22 23 23 23 23 19 16 16 25 26 31 44 40 42 40
81 88 83 73 67 62 55 48 43 41 40 40 31 31 31 33 29 21 16 9 9 3 5 6 10 11 14 18 19 19 19 19 16 16 16 16 18 22 36 39 58 49 41
77 76 70 67 65 62 56 49 44 40 38 37 37 33 35 31 28 23 15 15 18 19 18 16 15 16 17 20 21 21 19 18 17 14 14 19 21 24 31 41 49 56 51
80 73 72 71 66 60 55 48 42 38 33 31 30 30 29 27 24 22 19 18 19 19 18 16 15 17 22 25 26 25 24 24 24 22 18 15 18 22 24 29 40 49 53
85 84 81 71 65 62 56 50 45 43 37 33 31 27 27 26 26 22 19 20 18 18 16 15 19 23 27 29 29 27 28 28 26 24 22 19 20 24 25 27 36 44 50
95 96 85 73 67 63 58 55 52 44 40 34 31 28 27 26 26 25 24 21 17 11 8 8 15 21 29 32 29 27 26 28 28 27 27 28 26 23 23 22 23 28 34
68 84 84 74 65 59 56 53 48 43 39 36 32 34 33 29 29 28 23 20 13 5 3 10 17 24 30 29 29 31 29 28 27 29 31 31 31 29 29 30 25 22 27
90 94 85 73 66 61 57 53 48 46 39 43 40 38 34 34 33 26 24 19 12 9 10 13 19 28 31 29 30 31 32 31 31 32 33 34 36 36 35 35 34 30 30
55 71 71 64 61 60 56 50 46 45 50 46 45 40 34 34 31 28 23 17 11 12 16 18 23 30 35 34 33 34 34 33 33 36 40 42 47 46 43 40 40 42 32
62 62 69 65 61 63 57 48 45 49 49 47 45 41 38 33 28 24 18 14 12 16 20 23 25 30 38 37 37 36 34 34 39 46 47 51 54 47 40 36 35 38 42
74 87 79 78 73 63 68 61 53 53 49 49 46 41 37 30 23 17 16 12 14 18 22 27 30 35 40 39 38 39 37 37 39 46 49 48 45 35 30 28 29 30 37
85 79 81 94 92 94 94 66 74 69 56 53 49 45 39 27 24 22 19 18 18 20 25 31 36 41 44 45 46 45 41 38 38 42 49 46 33 23 21 27 26 25 29
75 79 88 98 99 103 96 74 74 74 60 57 54 43 40 38 35 26 20 22 25 29 33 36 43 46 51 52 51 47 44 42 44 44 40 33 26 19 19 18 21 27 29
72 80 90 95 97 100 91 84 77 71 67 66 65 54 49 46 39 34 30 26 29 34 38 43 49 53 56 58 51 47 47 44 40 37 28 26 23 16 20 22 19 18 20
66 78 92 75 69 72 77 78 71 72 76 69 70 57 54 47 40 30 25 28 37 42 46 51 54 58 56 54 51 49 40 28 23 25 27 24 27 22 25 23 21 18 25
45 58 56 56 57 58 69 67 64 66 65 62 65 67 61 41 20 22 31 34 39 46 51 52 53 50 46 40 36 35 29 27 25 25 24 27 27 33 30 27 28 24 28
17 32 49 57 58 57 63 63 65 63 64 65 52 23 7 11 27 31 25 35 40 41 41 43 40 35 30 25 30 27 28 28 32 31 27 32 35 35 32 33 34 37 38
68 68 66 66 61 59 64 65 60 53 37 35 14 2 7 17 22 29 27 31 32 34 39 37 36 37 30 28 28 31 34 36 37 35 35 33 35 36 37 36 37 43 47
86 87 91 86 73 64 54 51 42 31 17 12 2 3 4 11 15 22 24 30 37 37 35 36 34 35 36 36 37 36 38 41 42 43 43 40 40 42 44 44 42 43 48
76 68 76 72 66 64 56 51 42 28 23 13 7 9 3 5 14 19 24 25 26 30 35 35 38 43 43 49 46 46 44 44 47 49 51 55 58 55 56 57 55 55 62
64 63 56 65 63 48 39 41 21 35 15 14 9 12 8 11 11 16 26 32 33 32 32 38 47 51 53 49 44 45 44 44 48 53 57 56 57 56 57 53 49 46 43
57 59 55 68 56 44 40 26 18 13 8 15 15 19 17 18 19 18 18 18 16 23 31 37 41 45 51 50 50 53 56 56 54 57 61 64 65 67 62 55 50 45 42
53 53 51 49 43 31 30 24 26 22 20 23 24 21 21 23 22 23 26 24 28 26 23 27 35 42 48 55 60 64 68 70 68 66 64 63 59 55 54 53 49 42 40
Wind_Direction_850mb
183 181 185 193 200 206 208 207 212 215 218 214 211 215 234 241 242 246 250 257 263 265 264 258 267 267 274 278 292 269 278 290 296 307 305 310 314 318 315 319 315 308 307
170 173 177 185 192 197 202 205 210 217 215 219 217 225 235 239 240 248 248 249 254 262 260 259 267 273 289 291 296 313 313 315 323 329 331 327 320 293 308 313 318 319 323
178 178 182 184 186 189 191 197 198 202 209 215 223 232 234 242 245 252 265 274 258 242 245 262 280 285 302 302 311 320 322 330 337 340 349 329 308 320 324 327 333 330 327
186 184 185 184 187 191 196 199 202 204 211 216 218 234 244 247 224 228 217 213 230 260 267 276 290 304 335 349 351 349 348 345 348 4 2 348 326 322 324 328 337 336 337
196 191 191 191 190 196 198 202 205 208 216 219 223 234 227 230 222 202 199 207 253 230 112 82 72 50 30 19 12 6 4 357 358 358 354 345 344 350 335 329 335 326 336
206 201 198 197 197 195 197 199 204 205 204 209 223 225 227 213 198 184 173 136 118 113 102 87 67 48 31 19 8 1 346 344 343 347 349 356 6 342 340 333 332 329 331
211 201 197 194 190 186 186 188 193 191 194 194 191 196 198 189 177 159 139 126 125 118 102 84 61 34 19 7 0 352 342 338 332 333 336 330 333 343 334 334 328 328 332
210 202 199 189 184 181 180 179 178 178 178 179 176 171 169 166 155 147 138 136 133 120 92 52 28 10 359 352 348 343 339 338 331 327 321 323 311 314 332 344 341 333 326
199 198 193 186 180 176 173 173 170 168 168 172 168 166 165 164 158 155 148 143 134 117 83 20 3 358 349 345 342 338 335 331 328 322 317 313 303 301 310 314 331 342 329
183 187 188 184 179 171 167 168 169 170 168 176 171 164 164 166 163 159 158 153 156 188 320 339 347 350 349 344 337 332 334 331 325 319 313 307 305 300 294 295 298 311 321
184 187 184 181 174 173 173 174 173 172 178 175 169 169 172 173 170 172 172 172 196 251 296 315 334 340 344 338 331 328 327 324 320 315 311 312 311 305 300 288 287 287 295
164 173 177 176 178 178 177 180 186 185 182 182 176 178 180 187 181 182 188 199 218 267 291 311 325 334 336 335 329 326 324 322 318 314 312 311 308 305 302 292 281 279 285
162 168 174 181 190 189 184 189 198 198 185 182 180 180 183 192 201 199 208 219 253 284 294 307 319 330 330 330 328 326 320 315 311 310 312 315 314 307 302 294 286 272 274
178 180 182 184 196 202 195 191 202 200 191 187 182 185 190 195 200 207 214 236 276 289 295 306 314 319 322 323 324 322 316 308 305 306 311 319 321 311 307 304 299 287 274
181 193 195 193 194 206 206 201 203 201 197 195 194 194 193 196 215 222 231 254 276 292 302 306 311 315 317 318 321 320 316 309 305 306 310 315 313 304 306 307 302 295 290
206 210 204 200 205 203 206 203 203 204 200 202 202 200 208 204 206 211 231 253 270 286 296 302 308 311 312 313 315 316 312 306 305 308 312 309 307 299 286 284 294 299 298
197 202 205 209 210 207 212 205 208 208 205 207 207 206 203 198 202 214 232 260 280 291 293 297 302 304 305 308 310 309 307 305 305 307 307 306 310 302 301 290 273 286 294
212 211 209 205 203 207 206 206 208 207 204 202 206 192 187 190 197 213 242 263 282 287 293 296 299 302 304 304 308 307 308 307 311 312 306 308 306 305 302 307 303 288 278
237 229 210 200 199 205 202 201 198 196 191 187 185 178 180 177 200 247 252 262 274 286 292 296 299 301 301 302 311 317 317 316 311 301 296 296 301 299 292 282 286 284 275
167 182 187 183 186 179 190 188 177 175 163 156 141 129 224 231 256 264 273 287 287 293 299 306 308 307 302 304 311 317 306 302 298 295 292 295 298 300 302 287 277 280 278
103 116 124 123 123 138 155 141 132 125 119 116 72 342 300 244 259 279 289 294 294 301 307 309 314 320 311 300 295 302 298 295 294 291 295 297 295 296 296 296 295 284 285
95 102 105 98 97 97 100 106 100 98 104 85 92 149 40 294 275 282 295 298 300 304 307 318 316 315 311 308 301 295 289 292 286 288 292 289 289 291 292 292 294 296 294
86 82 85 84 77 73 71 52 76 80 53 44 78 43 31 297 302 308 308 303 307 310 316 313 316 310 305 303 303 298 291 287 287 285 285 287 288 290 286 280 281 286 287
82 86 85 87 78 73 63 60 43 59 78 101 51 71 358 354 322 310 310 310 304 291 300 315 309 305 304 307 309 306 302 296 292 288 286 284 287 293 296 292 290 290 288
76 76 80 77 75 73 79 72 62 53 51 62 39 35 7 343 346 342 328 307 307 331 328 312 306 305 304 305 299 294 293 292 288 286 284 286 289 293 293 292 292 290 285
86 80 76 82 80 75 71 55 42 32 30 33 30 20 19 20 12 0 350 358 1 347 312 290 285 288 284 286 286 286 287 286 286 284 284 285 288 291 293 291 292 288 284